Dauntless Aviation
Airports South America Argentina
SABE
AEP

Aeroparque Jorge Newbery

Buenos Aires, ARGENTINA

Airport Info
Suggest Updated Information for this Airport

Location

Latitude / Longitude: 34°33'33"S / 58°24'56"W
  34°33.552'S / 58°24.936'W
  -34.5592 / -58.4156

Nearby radio navigation aids

FDO SAN FERNANDO VOR/DME. 132.7° 10.6nm from FDO to field.
OP AEROPARQUE JORGE NEWBERY NDB. 131.1° 4.3nm from OP to field.

Runway Information

Runway 13 /31

Dimensions: 6890 x 131 ft.
Surface: ASP
 
Runway 13
Runway 31
Latitude: -34.553942 -34.563844
Longitude: -58.425247 -58.407506
Elevation: 18 ft. 18 ft.
Runway true heading: 126.3 306.3
 

Instrument Procedures

  Aerodrome Chart

STARs (Standard Terminal Arrivals)

  STAR Rwy 13/16 SARGO7C KOVUK7C TENIL7C BELGRANO7C
  STAR Rwy 13/16 PAGON7C SAN ANTONIO7C ASADA7C VALOS8C
  STAR Rwy 13/16 SURBO7A KUKEN1C PAPIX1C
  STAR Rwy 31 SURBO2B SARGO7D KOVUK7D TENIL7D BELGRANO7D VALOS7D ASADA7D
  STAR Rwy 31 PAGON7D SAN ANTONIO7D

IAPs (Instrument Approach Procedures)

  VOR (DME) ILS Rwy 13
  VOR (DMS) ILS (DME) Rwy 13
  LI ILS (DME) Rwy 13
  VOR (DME) LO LI Rwy 13
  LI LO LI Rwy 13
  LI Rwy 31
  LI Rwy 31

Departure Procedures

  SID Rwy 13/31 LANDA3B VIBAM38 ATOVO38
  SID Rwy 13/31 EZEIZA8
  SID Rwy 13/31 EL PALOMAR 8
  SID Rwy 13/31 KUKEN7 SURBO7 DORVO7 LA PLAYA7
Satellite photo at:
Airport distance calculator
From:
Weather Reports

METAR

SABE

SABE 301200Z 27007KT 200V320 9000 BKN009 13/11 Q1007
SADF
10.6nm W
SADF 301200Z 25008KT 9999 BKN007 12/11 Q1007
SAEZ
16.2nm S
SAEZ 301200Z 29011KT 5000 -DZ OVC006 12/11 Q1007
SUCA
30.3nm NE
SUCA 301200Z 29017KT 9999 SCT011 BKN033 13/11 Q1006

TAF

SABE
TAF SABE 301100Z 3012/3112 25010KT 9999 OVC009 TX14/3018Z TN11/3110Z BECMG 3014/3016 BKN015 BECMG 3101/3103 5000 RA OVC007 OVC040
SADF
10.6nm W
TAF SADF 301100Z 3012/3112 27015G25KT 7000 DZ OVC009 TX14/3018Z TN11/3110Z BECMG 3022/3101 3000 DZRA OVC006 OVC050
SAEZ
16.2nm S
TAF SAEZ 301100Z 3012/3112 28010G20KT 6000 BKN010 OVC020 TX15/3018Z TN10/3110Z BECMG 3024/3103 25015KT 3000 DZRA BR BKN005 OVC015
SUCA
30.3nm NE
TAF SUCA 301130Z 3012/3112 28020KT 8000 BKN008 OVC012 TX14/3018Z TN11/3110Z TEMPO 3012/3100 3000 DZBR SCT002 OVC005 PROB40 TEMPO 3012/3100 26018G28KT
Safelog

 

Dauntless Aviation

© 2007-2016 Dauntless Aviation, all rights reserved
Information provided via PilotNav comes from a variety of official and unofficial data sources. As errors are possible, do not use PilotNav for primary flight planning purposes. Verify any information that you receive via PilotNav with current and canonical charts and other official documents. The material in this database is subject to database copyrights held by Dauntless Aviation and may not be copied without the express permission of Dauntless Aviation - licenses for use of part of all of this data are available for purchase; enquire via the Dauntless Aviation helpdesk. A number of mechanisms and markers exist in the database to protect against and identify infringement / copyright. Automated queries against this website are stictly prohibited, and all activity is logged and analyzed.